This is the latest recevied weather packets stored in our database for station/object JE6MIQ-13. If no packets are shown the sender has not sent any weather packets the latest 10 day(s).
| Time | Temp. | Humidity | Pressure | Rain* | Wind** | Luminosity | Snow |
|---|---|---|---|---|---|---|---|
| 1777744353 | 16.67° C | 55% | 1009.1 hPa | 0 mm | - | - | - |
| 1777743753 | 16.67° C | 53% | 1009.1 hPa | 0 mm | - | - | - |
| 1777743154 | 16.67° C | 50% | 1009.1 hPa | 0 mm | - | - | - |
| 1777742553 | 16.67° C | 51% | 1010 hPa | 0 mm | - | - | - |
| 1777741953 | 17.22° C | 44% | 1009.9 hPa | 0 mm | - | - | - |
| 1777741352 | 17.22° C | 38% | 1009.9 hPa | 0 mm | - | - | - |
| 1777740753 | 17.22° C | 36% | 1010.3 hPa | 0 mm | - | - | - |
| 1777740153 | 17.78° C | 28% | 1010.3 hPa | 0 mm | - | - | - |
| 1777739553 | 18.33° C | 25% | 1010.2 hPa | 0 mm | - | - | - |
| 1777738954 | 18.33° C | 25% | 1010.2 hPa | 0 mm | - | - | - |
| 1777738353 | 18.89° C | 25% | 1010.4 hPa | 0 mm | - | - | - |
| 1777737753 | 18.89° C | 25% | 1010.4 hPa | 0 mm | - | - | - |
| 1777737153 | 18.89° C | 25% | 1009.8 hPa | 0 mm | - | - | - |
| 1777736554 | 18.89° C | 25% | 1009.8 hPa | 0 mm | - | - | - |
| 1777735953 | 18.89° C | 25% | 1009.2 hPa | 0 mm | - | - | - |
| 1777735353 | 18.33° C | 25% | 1009 hPa | 0 mm | - | - | - |
| 1777734752 | 18.33° C | 25% | 1009 hPa | 0 mm | - | - | - |
| 1777734152 | 18.33° C | 25% | 1009.2 hPa | 0 mm | - | - | - |
| 1777733553 | 18.33° C | 25% | 1010.2 hPa | 0 mm | - | - | - |
| 1777732953 | 18.89° C | 25% | 1010.2 hPa | 0 mm | - | - | - |
| 1777732353 | 18.89° C | 25% | 1010.8 hPa | 0 mm | - | - | - |
| 1777731753 | 18.89° C | 25% | 1010.5 hPa | 0 mm | - | - | - |
| 1777731153 | 19.44° C | 25% | 1010.5 hPa | 0 mm | - | - | - |
| 1777730552 | 19.44° C | 25% | 1010.4 hPa | 0 mm | - | - | - |
| 1777729954 | 19.44° C | 25% | 1010.9 hPa | 0 mm | - | - | - |
* Rain latest hour (hover to see other rain measurements)
** Current wind speed in m/s (hover to see current wind gust speed)